GW5249 Weather Reports


time (UTC)temp
C
wind
direction
speed
KPH
gust
KPH
rain 1hr
cm
rain 24hr
cm
rain mn
cm
humidity
%
barometer
mb
20260510164410 23 9 1.6 1.6 0.00 0.00 0.00 57 1013.3
20260510163904 23 9 1.6 3.2 0.00 0.00 0.00 54 1013.5
20260510163402 23 358 0.0 1.6 0.00 0.00 0.00 56 1013.3
20260510162900 23 358 1.6 9.7 0.00 0.00 0.00 57 1013.4
20260510162359 23 276 1.6 9.7 0.00 0.00 0.00 54 1013.4
20260510161854 23 267 1.6 3.2 0.00 0.00 0.00 52 1013.4
20260510161350 24 297 3.2 11.3 0.00 0.00 0.00 50 1013.4
20260510160847 24 346 4.8 4.8 0.00 0.00 0.00 52 1013.5
20260510160345 23 276 3.2 3.2 0.00 0.00 0.00 52 1013.4
20260510155838 24 260 3.2 4.8 0.00 0.00 0.00 49 1013.5
20260510155335 24 271 6.4 9.7 0.00 0.00 0.00 52 1013.4
20260510154831 23 269 0.0 4.8 0.00 0.00 0.00 52 1012.9
20260510154327 24 306 3.2 3.2 0.00 0.00 0.00 54 1013.0
20260510153821 24 287 3.2 4.8 0.00 0.00 0.00 53 1013.1
20260510153318 23 115 1.6 3.2 0.00 0.00 0.00 52 1013.4
20260510152814 23 350 1.6 3.2 0.00 0.00 0.00 55 1013.5
20260510152308 23 12 3.2 4.8 0.00 0.00 0.00 56 1013.3
20260510151803 22 100 0.0 6.4 0.00 0.00 0.00 58 1013.7
20260510151301 22 3 0.0 4.8 0.00 0.00 0.00 61 1013.6
20260510150755 22 4 3.2 4.8 0.00 0.00 0.00 58 1013.9
20260510150252 22 3 0.0 4.8 0.00 0.00 0.00 58 1014.0
20260510145747 22 7 1.6 3.2 0.00 0.00 0.00 64 1013.9
20260510145244 21 7 0.0 1.6 0.00 0.00 0.00 62 1013.6
20260510144740 21 7 1.6 3.2 0.00 0.00 0.00 64 1013.8
20260510144238 20 7 1.6 1.6 0.00 0.00 0.00 65 1014.0
20260510143732 20 350 1.6 3.2 0.00 0.00 0.00 68 1014.0
20260510143229 19 49 0.0 1.6 0.00 0.00 0.00 71 1013.9
20260510142725 19 49 0.0 1.6 0.00 0.00 0.00 73 1013.9
20260510142222 20 49 3.2 3.2 0.00 0.00 0.00 72 1013.6
20260510141719 20 49 1.6 3.2 0.00 0.00 0.00 69 1013.7
20260510141218 20 49 1.6 1.6 0.00 0.00 0.00 73 1013.6
20260510140714 19 49 0.0 3.2 0.00 0.00 0.00 75 1013.9
20260510140213 18 49 1.6 3.2 0.00 0.00 0.00 78 1013.6
20260510135708 18 49 0.0 0.0 0.00 0.00 0.00 82 1013.8
20260510135204 18 49 0.0 0.0 0.00 0.00 0.00 80 1013.9
20260510134701 18 49 0.0 0.0 0.00 0.00 0.00 82 1013.8
20260510134159 17 49 0.0 1.6 0.00 0.00 0.00 83 1014.0
20260510133654 17 49 0.0 0.0 0.00 0.00 0.00 84 1013.6
20260510133150 17 49 0.0 0.0 0.00 0.00 0.00 89 1013.6
20260510132647 16 49 0.0 0.0 0.00 0.00 0.00 90 1013.9
20260510132144 15 49 0.0 0.0 0.00 0.00 0.00 95 1013.6
20260510131641 14 49 0.0 0.0 0.00 0.00 0.00 97 1013.8
20260510131139 13 49 0.0 0.0 0.00 0.00 0.00 98 1013.7
20260510130635 13 49 0.0 0.0 0.00 0.00 0.00 99 1013.7
20260510130133 12 49 0.0 0.0 0.00 0.00 0.00 99 1013.6
20260510125629 12 49 0.0 0.0 0.00 0.00 0.00 99 1013.8
20260510125125 12 49 0.0 0.0 0.00 0.00 0.00 99 1013.7
20260510124622 11 49 0.0 0.0 0.00 0.00 0.00 99 1013.8
20260510124119 11 49 0.0 0.0 0.00 0.00 0.00 99 1013.7
20260510123614 11 49 0.0 0.0 0.00 0.00 0.00 99 1013.7
20260510123111 10 49 0.0 0.0 0.00 0.00 0.00 99 1013.8
20260510122601 10 49 0.0 0.0 0.00 0.00 0.00 99 1013.8
20260510122057 10 49 0.0 0.0 0.00 0.00 0.00 99 1013.9
20260510121554 9 49 0.0 0.0 0.00 0.00 0.00 99 1013.7
20260510121052 9 49 0.0 0.0 0.00 0.00 0.00 99 1013.7
20260510120550 8 49 0.0 0.0 0.00 0.00 0.00 99 1013.5
20260510120049 8 49 0.0 0.0 0.00 0.00 0.00 99 1013.6
20260510115547 8 49 0.0 0.0 0.00 0.00 0.00 99 1013.5
20260510115044 8 49 0.0 1.6 0.00 0.00 0.00 99 1013.7
20260510114539 8 49 0.0 0.0 0.00 0.00 0.00 99 1013.5
20260510114036 8 49 0.0 0.0 0.00 0.00 0.00 99 1013.5
20260510113531 8 49 0.0 0.0 0.00 0.00 0.00 99 1013.3
20260510113029 7 49 0.0 0.0 0.00 0.00 0.00 99 1012.9
20260510112525 7 49 0.0 0.0 0.00 0.00 0.00 99 1013.0
20260510112022 7 49 0.0 0.0 0.00 0.00 0.00 99 1012.8
20260510111519 7 49 0.0 0.0 0.00 0.00 0.00 99 1012.9
20260510111014 7 49 0.0 0.0 0.00 0.00 0.00 99 1012.5
20260510110511 7 49 0.0 0.0 0.00 0.00 0.00 99 1012.8
20260510110007 7 49 0.0 0.0 0.00 0.00 0.00 99 1012.8
20260510105502 7 49 0.0 0.0 0.00 0.00 0.00 99 1012.4
20260510104958 7 49 0.0 0.0 0.00 0.00 0.00 99 1012.4
20260510104454 7 49 0.0 0.0 0.00 0.00 0.00 99 1012.3
20260510103951 7 49 0.0 0.0 0.00 0.00 0.00 99 1012.5
20260510103448 7 49 0.0 0.0 0.00 0.00 0.00 99 1012.3
20260510102943 7 49 0.0 0.0 0.00 0.00 0.00 99 1012.4
20260510102439 7 49 0.0 0.0 0.00 0.00 0.00 99 1012.4
20260510101936 7 49 0.0 0.0 0.00 0.00 0.00 99 1012.2
20260510101434 7 49 0.0 0.0 0.00 0.00 0.00 99 1012.2
20260510100932 7 49 0.0 0.0 0.00 0.00 0.00 99 1012.1
20260510100428 7 49 0.0 0.0 0.00 0.00 0.00 99 1011.9
20260510095924 7 49 0.0 0.0 0.00 0.00 0.00 99 1011.8
20260510095420 7 49 0.0 0.0 0.00 0.00 0.00 99 1011.9
20260510094919 7 49 0.0 0.0 0.00 0.00 0.00 99 1011.6
20260510094414 7 49 0.0 0.0 0.00 0.00 0.00 99 1011.5
20260510093911 7 49 0.0 0.0 0.00 0.00 0.00 99 1011.7
20260510093406 7 49 0.0 0.0 0.00 0.00 0.00 99 1011.7
20260510092903 7 49 0.0 0.0 0.00 0.00 0.00 99 1011.7
20260510092400 7 49 0.0 0.0 0.00 0.00 0.00 99 1011.8
20260510091855 7 49 0.0 0.0 0.00 0.00 0.00 99 1011.7
20260510091352 7 49 0.0 0.0 0.00 0.00 0.00 99 1011.7
20260510090849 7 49 0.0 0.0 0.00 0.00 0.00 99 1011.7
20260510090345 7 49 0.0 0.0 0.00 0.00 0.00 99 1011.4
20260510085841 7 49 0.0 0.0 0.00 0.00 0.00 99 1011.4
20260510085336 8 49 0.0 0.0 0.00 0.00 0.00 99 1011.5
20260510084832 8 49 0.0 0.0 0.00 0.00 0.00 99 1011.2
20260510084330 8 49 0.0 0.0 0.00 0.00 0.00 99 1011.2
20260510083826 8 49 0.0 0.0 0.00 0.00 0.00 99 1011.2
20260510083323 8 49 0.0 0.0 0.00 0.00 0.00 99 1011.2
20260510082818 8 49 0.0 0.0 0.00 0.00 0.00 99 1011.1
20260510082315 8 49 0.0 0.0 0.00 0.00 0.00 99 1011.2
20260510081814 8 49 0.0 0.0 0.00 0.00 0.00 99 1011.2
20260510081310 8 49 0.0 0.0 0.00 0.00 0.00 99 1011.3
20260510080806 8 49 0.0 0.0 0.00 0.00 0.00 99 1011.3
20260510080301 8 49 0.0 0.0 0.00 0.00 0.00 99 1010.9
20260510075758 8 49 0.0 0.0 0.00 0.00 0.00 99 1011.0
20260510075256 8 49 0.0 0.0 0.00 0.00 0.00 99 1010.8
20260510074753 8 49 0.0 0.0 0.00 0.00 0.00 99 1010.8
20260510074249 8 49 0.0 0.0 0.00 0.00 0.00 99 1010.9
20260510073745 8 49 0.0 0.0 0.00 0.00 0.00 99 1010.9
20260510073241 8 49 0.0 0.0 0.00 0.00 0.00 99 1010.8
20260510072737 8 49 0.0 0.0 0.00 0.00 0.00 99 1010.9
20260510072234 8 49 0.0 0.0 0.00 0.00 0.00 99 1010.7
20260510071731 8 49 0.0 0.0 0.00 0.00 0.00 99 1011.0
20260510071227 8 49 0.0 0.0 0.00 0.00 0.00 99 1011.0
20260510070726 8 49 0.0 0.0 0.00 0.00 0.00 99 1011.0
20260510070223 8 49 0.0 0.0 0.00 0.00 0.00 99 1010.9
20260510065717 8 49 0.0 0.0 0.00 0.00 0.00 99 1011.0
20260510065214 8 49 0.0 0.0 0.00 0.00 0.00 99 1010.9
20260510064710 8 49 0.0 0.0 0.00 0.00 0.00 99 1010.9
20260510064208 8 49 0.0 0.0 0.00 0.00 0.00 99 1011.0
20260510063705 8 49 0.0 0.0 0.00 0.00 0.00 99 1010.9
20260510063201 8 49 0.0 0.0 0.00 0.00 0.00 99 1010.9
20260510062657 8 49 0.0 0.0 0.00 0.00 0.00 99 1010.9
20260510062153 8 49 0.0 0.0 0.00 0.00 0.00 99 1010.9
20260510061648 8 49 0.0 0.0 0.00 0.00 0.00 99 1010.9
20260510061146 8 49 0.0 0.0 0.00 0.00 0.00 99 1011.1
20260510060642 9 49 0.0 0.0 0.00 0.00 0.00 99 1011.2
20260510060139 9 49 0.0 0.0 0.00 0.00 0.00 99 1011.1
20260510055635 9 49 0.0 0.0 0.00 0.00 0.00 99 1011.1
20260510055134 9 49 0.0 0.0 0.00 0.00 0.00 99 1011.1
20260510054629 9 49 0.0 0.0 0.00 0.00 0.00 99 1011.1
20260510054125 9 49 0.0 0.0 0.00 0.00 0.00 99 1011.1
20260510053624 9 49 0.0 0.0 0.00 0.00 0.00 99 1011.1
20260510053121 9 49 0.0 0.0 0.00 0.00 0.00 99 1010.9
20260510052617 9 49 0.0 0.0 0.00 0.00 0.00 99 1011.2
20260510052114 9 49 0.0 0.0 0.00 0.00 0.00 99 1011.2
20260510051609 9 49 0.0 0.0 0.00 0.00 0.00 99 1011.4
20260510051106 9 49 0.0 0.0 0.00 0.00 0.00 99 1011.4
20260510050603 9 49 0.0 0.0 0.00 0.00 0.00 99 1011.4
20260510050100 10 49 0.0 0.0 0.00 0.00 0.00 99 1011.2
20260510045557 10 49 0.0 0.0 0.00 0.00 0.00 99 1011.4
20260510045053 10 49 0.0 0.0 0.00 0.00 0.00 99 1011.5
20260510044550 10 49 0.0 0.0 0.00 0.00 0.00 99 1011.5
20260510044048 10 49 0.0 0.0 0.00 0.00 0.00 99 1011.5
20260510043543 10 49 0.0 0.0 0.00 0.00 0.00 99 1011.4
20260510043039 10 49 0.0 0.0 0.00 0.00 0.00 99 1011.6
20260510042538 10 49 0.0 0.0 0.00 0.00 0.00 99 1011.3
20260510042033 10 49 0.0 0.0 0.00 0.00 0.00 99 1011.5
20260510041531 10 49 0.0 0.0 0.00 0.00 0.00 99 1011.2
20260510041028 10 49 0.0 0.0 0.00 0.00 0.00 99 1011.4
20260510040525 10 49 0.0 0.0 0.00 0.00 0.00 99 1011.3
20260510040021 10 49 0.0 0.0 0.00 0.00 0.00 99 1011.5
20260510035518 10 49 0.0 0.0 0.00 0.00 0.00 99 1011.3
20260510035016 10 49 0.0 0.0 0.00 0.00 0.00 99 1011.3
20260510034516 10 49 0.0 0.0 0.00 0.00 0.00 99 1011.1
20260510034012 10 49 0.0 0.0 0.00 0.00 0.00 99 1011.2
20260510033508 10 49 0.0 0.0 0.00 0.00 0.00 99 1011.1
20260510033007 11 49 0.0 0.0 0.00 0.00 0.00 99 1011.2
20260510032503 11 49 0.0 0.0 0.00 0.00 0.00 98 1011.2
20260510032003 11 49 0.0 0.0 0.00 0.00 0.00 98 1011.2
20260510031458 11 49 0.0 0.0 0.00 0.00 0.00 98 1011.1
20260510030954 11 49 0.0 0.0 0.00 0.00 0.00 98 1011.0
20260510030450 11 49 0.0 0.0 0.00 0.00 0.00 98 1010.8
20260510025947 11 49 0.0 0.0 0.00 0.00 0.00 98 1011.0
20260510025445 11 49 0.0 0.0 0.00 0.00 0.00 98 1010.8
20260510024942 11 49 0.0 0.0 0.00 0.00 0.00 97 1010.7
20260510024438 11 49 0.0 0.0 0.00 0.00 0.00 97 1010.5
20260510023934 11 49 0.0 0.0 0.00 0.00 0.00 97 1010.7
20260510023430 11 49 0.0 0.0 0.00 0.00 0.00 97 1010.8
20260510022928 12 49 0.0 0.0 0.00 0.00 0.00 97 1010.8
20260510022427 12 49 0.0 0.0 0.00 0.00 0.00 96 1010.5
20260510021926 12 49 0.0 0.0 0.00 0.00 0.00 96 1010.3
20260510021424 12 49 0.0 0.0 0.00 0.00 0.00 95 1010.0
20260510020920 12 49 0.0 0.0 0.00 0.00 0.00 95 1010.1
20260510020415 12 49 0.0 0.0 0.00 0.00 0.00 95 1009.9
20260510015911 12 49 0.0 0.0 0.00 0.00 0.00 95 1010.0
20260510015407 12 49 0.0 0.0 0.00 0.00 0.00 94 1010.1
20260510014908 12 49 0.0 0.0 0.00 0.00 0.00 93 1009.9
20260510014406 12 49 0.0 0.0 0.00 0.00 0.00 93 1009.9
20260510013902 13 49 0.0 0.0 0.00 0.00 0.00 92 1009.9
20260510013357 13 49 0.0 0.0 0.00 0.00 0.00 92 1010.0
20260510012852 13 49 0.0 0.0 0.00 0.00 0.00 92 1009.7
20260510012347 13 49 0.0 0.0 0.00 0.00 0.00 91 1009.6
20260510011842 13 49 0.0 0.0 0.00 0.00 0.00 90 1009.7
20260510011337 13 49 0.0 0.0 0.00 0.00 0.00 89 1009.6
20260510010834 14 49 0.0 0.0 0.00 0.00 0.00 89 1009.6
20260510010331 14 49 0.0 0.0 0.00 0.00 0.00 88 1009.4
20260510005828 14 49 0.0 0.0 0.00 0.00 0.00 87 1009.4
20260510005324 15 49 0.0 0.0 0.00 0.00 0.00 86 1009.3
20260510004822 15 49 0.0 0.0 0.00 0.00 0.00 85 1009.2
20260510004319 15 49 0.0 0.0 0.00 0.00 0.00 86 1008.9
20260510003817 15 49 0.0 0.0 0.00 0.00 0.00 84 1009.1
20260510003314 16 49 0.0 0.0 0.00 0.00 0.00 84 1009.1
20260510002812 16 49 0.0 0.0 0.00 0.00 0.00 83 1009.0
20260510002310 16 49 0.0 0.0 0.00 0.00 0.00 81 1008.5
20260510001806 17 49 0.0 0.0 0.00 0.00 0.00 80 1008.8
20260510001305 17 49 0.0 0.0 0.00 0.00 0.00 78 1008.8
20260510000800 18 49 0.0 0.0 0.00 0.00 0.00 69 1008.7
20260510000258 18 49 0.0 0.0 0.00 0.00 0.00 67 1008.5
20260509235755 18 48 0.0 0.0 0.00 0.00 0.00 67 1008.8
20260509235251 18 49 0.0 1.6 0.00 0.00 0.00 67 1008.8
20260509234747 18 49 0.0 1.6 0.00 0.00 0.00 66 1008.4
20260509234244 19 48 0.0 0.0 0.00 0.00 0.00 65 1008.4
20260509233742 19 49 0.0 1.6 0.00 0.00 0.00 66 1008.5
20260509233240 19 49 3.2 3.2 0.00 0.00 0.00 64 1008.7
20260509232735 19 48 0.0 0.0 0.00 0.00 0.00 64 1008.5
20260509232233 20 48 1.6 3.2 0.00 0.00 0.00 64 1008.7
20260509231729 19 219 1.6 1.6 0.00 0.00 0.00 64 1008.5
20260509231226 20 219 0.0 0.0 0.00 0.00 0.00 64 1008.3
20260509230724 20 219 0.0 3.2 0.00 0.00 0.00 64 1008.4
20260509230221 19 219 0.0 0.0 0.00 0.00 0.00 64 1008.2
20260509225716 19 219 0.0 0.0 0.00 0.00 0.00 64 1008.3
20260509225212 20 219 0.0 1.6 0.00 0.00 0.00 63 1008.5
20260509224708 20 219 3.2 4.8 0.00 0.00 0.00 62 1008.3
20260509224206 20 74 0.0 1.6 0.00 0.00 0.00 65 1008.2
20260509223703 20 74 0.0 1.6 0.00 0.00 0.00 62 1008.3
20260509223159 20 353 0.0 1.6 0.00 0.00 0.00 63 1008.4
20260509222656 20 353 1.6 1.6 0.00 0.00 0.00 65 1008.5
20260509222151 20 353 0.0 1.6 0.00 0.00 0.00 64 1008.4
20260509221647 20 353 0.0 0.0 0.00 0.00 0.00 63 1008.4
20260509221143 20 353 0.0 1.6 0.00 0.00 0.00 62 1008.7
20260509220639 20 353 0.0 1.6 0.00 0.00 0.00 64 1008.5
20260509220135 20 39 0.0 3.2 0.00 0.00 0.00 64 1008.8
20260509215632 20 39 0.0 4.8 0.00 0.00 0.00 62 1008.7
20260509215128 20 245 3.2 4.8 0.00 0.00 0.00 63 1008.7
20260509214626 20 245 0.0 1.6 0.00 0.00 0.00 62 1008.7
20260509214122 20 245 0.0 1.6 0.00 0.00 0.00 63 1008.5
20260509213619 20 245 0.0 4.8 0.00 0.00 0.00 61 1008.7
20260509213115 20 45 3.2 3.2 0.00 0.00 0.00 63 1008.9
20260509212613 20 55 3.2 3.2 0.00 0.00 0.00 61 1008.9
20260509212110 20 283 0.0 1.6 0.00 0.00 0.00 63 1008.7
20260509211605 20 283 1.6 3.2 0.00 0.00 0.00 62 1008.7
20260509211102 20 10 3.2 4.8 0.00 0.00 0.00 64 1008.7
20260509210559 20 296 1.6 1.6 0.00 0.00 0.00 63 1008.9
20260509210055 20 140 0.0 1.6 0.00 0.00 0.00 59 1008.8
20260509205549 20 306 0.0 1.6 0.00 0.00 0.00 61 1008.5
20260509205045 20 306 0.0 1.6 0.00 0.00 0.00 62 1008.8
20260509204542 20 306 0.0 0.0 0.00 0.00 0.00 61 1008.7
20260509204038 20 287 0.0 3.2 0.00 0.00 0.00 63 1008.5
20260509203534 20 16 0.0 1.6 0.00 0.00 0.00 59 1008.7
20260509203033 20 271 0.0 6.4 0.00 0.00 0.00 61 1008.4
20260509202532 20 256 0.0 0.0 0.00 0.00 0.00 63 1008.3
20260509202028 20 256 0.0 1.6 0.00 0.00 0.00 62 1008.5
20260509201523 20 256 0.0 1.6 0.00 0.00 0.00 61 1008.4
20260509201021 20 256 1.6 3.2 0.00 0.00 0.00 61 1008.2
20260509200521 20 283 0.0 3.2 0.00 0.00 0.00 60 1008.3
20260509200018 20 262 3.2 3.2 0.00 0.00 0.00 60 1008.2
20260509195514 20 124 0.0 3.2 0.00 0.00 0.00 62 1008.2
20260509195013 20 125 1.6 1.6 0.00 0.00 0.00 59 1008.5
20260509194509 20 281 0.0 1.6 0.00 0.00 0.00 59 1008.3
20260509194007 20 281 0.0 6.4 0.00 0.00 0.00 60 1008.7
20260509193506 20 356 0.0 4.8 0.00 0.00 0.00 58 1008.4
20260509193003 21 356 3.2 4.8 0.00 0.00 0.00 58 1008.3
20260509192459 20 121 4.8 4.8 0.00 0.00 0.00 57 1008.5
20260509191954 20 304 3.2 6.4 0.00 0.00 0.00 58 1008.4
20260509191450 21 319 6.4 9.7 0.00 0.00 0.00 58 1008.7
20260509190946 20 49 1.6 4.8 0.00 0.00 0.00 64 1008.3
20260509190443 20 69 3.2 6.4 0.00 0.00 0.00 57 1008.5
20260509185941 20 281 3.2 4.8 0.00 0.00 0.00 60 1008.4
20260509185438 20 270 3.2 9.7 0.00 0.00 0.00 59 1008.7
20260509184934 20 221 3.2 3.2 0.00 0.00 0.00 60 1008.7
20260509184432 20 125 1.6 6.4 0.00 0.00 0.00 57 1008.7
20260509183928 20 348 3.2 6.4 0.00 0.00 0.00 60 1008.5
20260509183423 20 260 4.8 4.8 0.00 0.00 0.00 60 1008.8
20260509182920 20 276 0.0 4.8 0.00 0.00 0.00 64 1008.5
20260509182416 19 276 1.6 4.8 0.00 0.00 0.00 63 1008.8
20260509181914 19 292 3.2 4.8 0.00 0.00 0.00 62 1008.7
20260509181411 19 254 1.6 3.2 0.00 0.00 0.00 63 1009.1
20260509180908 19 2 3.2 4.8 0.00 0.00 0.00 64 1009.0
20260509180404 19 10 0.0 1.6 0.00 0.00 0.00 69 1008.9
20260509175901 19 10 0.0 1.6 0.00 0.00 0.00 63 1009.0
20260509175357 19 279 3.2 4.8 0.00 0.00 0.00 61 1008.9
20260509174853 19 268 0.0 1.6 0.00 0.00 0.00 63 1008.7
20260509174350 20 350 1.6 4.8 0.00 0.00 0.00 64 1009.0
20260509173845 19 342 0.0 3.2 0.00 0.00 0.00 66 1008.9
20260509173341 19 341 1.6 3.2 0.00 0.00 0.00 64 1009.0
20260509172837 19 303 3.2 4.8 0.00 0.00 0.00 60 1009.1
20260509172334 20 235 8.0 9.7 0.00 0.00 0.00 59 1009.2
20260509171830 20 239 4.8 4.8 0.00 0.00 0.00 58 1009.3
20260509171325 19 21 3.2 6.4 0.00 0.00 0.00 63 1009.2
20260509170822 18 308 0.0 1.6 0.00 0.00 0.00 60 1009.3
20260509170318 18 293 4.8 4.8 0.00 0.00 0.00 64 1009.2
20260509165818 18 298 1.6 4.8 0.00 0.00 0.00 63 1009.4
20260509165312 18 198 1.6 6.4 0.00 0.00 0.00 62 1009.1